[[{"header":{"parameterUnit":"m.s-1","parameterCategory":1,"la1":30.2991,"la2":30.254,"lo1":-89.0895,"lo2":-89.0444,"dy":0.0017,"dx":0.0017,"nx":28,"ny":28,"refTime":"2025-05-27T09:00:00:Z","depth":0,"parameterNumber":2,"parameterNumberName":"U-component_of_WINDS"},"data":[0,0,0,0,0,0,0,0,0,0,0,0,0,0,0,0,0,0,0,0,0,0,0,0,0,0,0,0,0,0,0,0,0,0,0,0,0,0,0,0,0,0,0,0,0,0,0,0,0,0,0,0,0,0,0,0,0,0,2.2355,2.2354,0,2.2278,2.2277,2.2276,2.2154,2.2152,2.215,2.2148,2.2071,2.2071,2.2071,0,0,0,0,0,0,0,0,0,0,0,0,0,2.2396,2.2396,2.2355,2.2354,2.2353,2.2278,2.2277,2.2276,2.2155,2.2152,2.2149,2.2147,2.2071,2.2071,2.2071,0,0,0,0,0,0,0,0,0,0,0,0,0,2.2355,2.2396,2.2355,2.2283,2.2276,2.2278,2.2277,2.2275,2.2155,2.2152,2.2149,2.2146,2.2071,2.2071,2.2071,2.2137,0,0,2.2071,2.2071,0,0,0,0,0,0,0,0,2.2358,2.2354,2.2295,2.2288,2.228,2.2222,2.2263,2.2229,2.2156,2.2201,2.2148,2.2144,2.2124,2.212,2.2112,2.2134,2.2131,2.2071,2.2071,2.2071,2.2071,0,0,0,0,0,0,0,2.2361,2.2356,2.2324,2.2294,2.2285,2.2255,2.2245,2.2256,2.2182,2.2197,2.2188,2.218,2.2119,2.2113,2.211,2.2129,2.2071,2.2071,2.2071,2.2071,2.2198,2.2201,0,0,0,0,0,0,2.2374,2.2359,2.2327,2.2322,2.2311,2.2257,2.2246,2.2244,2.2182,2.2169,2.2183,2.2175,2.2114,2.211,2.2107,2.2177,2.2071,2.2071,2.2071,2.2194,2.2198,2.2202,0,0,0,0,0,0,2.2375,2.2372,2.233,2.2338,2.233,2.226,2.2258,2.2244,2.2237,2.2171,2.2158,2.219,2.2112,2.2107,2.213,2.2173,2.2071,2.2071,2.219,2.2196,2.22,2.2322,0,0,0,0,0,0,2.2377,2.2373,2.2398,2.234,2.233,2.2355,2.2261,2.2245,2.2238,2.2226,2.2174,2.2162,2.2109,2.213,2.213,2.2171,2.2071,2.2186,2.2193,2.2199,2.2313,2.233,2.2344,0,0,0,0,0,2.2379,2.2436,2.24,2.2397,2.236,2.2357,2.2352,2.2289,2.2242,2.2265,2.2222,2.2164,2.2169,2.2134,2.2132,2.2174,2.2183,2.2191,2.2198,2.2306,2.2327,2.2344,0,0,0,0,0,0,2.2503,2.2427,2.2386,2.2426,2.2399,2.2337,2.2365,2.2313,2.2299,2.2289,2.2211,2.22,2.2233,2.2206,2.2168,2.2233,2.2167,2.2174,2.225,2.2268,2.2284,2.2289,2.2071,0,0,0,0,0,2.2535,2.2539,2.2473,2.2515,2.2503,2.2437,2.2433,2.2387,2.2355,2.2343,2.2302,2.2275,2.2269,2.2268,2.226,2.2309,2.2295,2.2337,2.2353,2.2366,2.2373,2.2394,2.2411,2.2227,2.2227,2.2227,0,0,2.2601,2.256,2.2568,2.2539,2.2512,2.2517,2.2428,2.2438,2.2441,2.2345,2.2363,2.2333,2.2296,2.2332,2.2346,2.2311,2.2421,2.2376,2.2387,2.2386,2.2404,2.2421,2.2437,2.2232,2.2231,2.223,0,0,2.2723,2.2694,2.2724,2.2699,2.2659,2.2614,2.2622,2.2567,2.2542,2.2559,2.2486,2.2489,2.2483,2.2459,2.2446,2.2557,2.2502,2.2557,2.2638,2.266,2.2674,2.2686,2.2724,2.2738,2.2565,2.2565,2.2565,0,2.2811,2.2815,2.2747,2.276,2.2749,2.2661,2.269,2.2669,2.263,2.2623,2.2585,2.2572,2.2542,2.257,2.2597,2.259,2.2595,2.2562,2.2678,2.2689,2.27,2.2734,2.2749,2.2572,2.2571,2.257,2.257,0,2.2923,2.2928,2.2957,2.2919,2.2911,2.2933,2.2866,2.2867,2.282,2.278,2.2797,2.2757,2.2738,2.2742,2.2698,2.2763,2.2741,2.2692,2.2623,2.2725,2.2756,2.2769,2.2581,2.2579,2.2577,2.2575,0,0,2.3121,2.3043,2.3055,2.3035,2.2984,2.2986,2.3004,2.2984,2.2985,2.296,2.2971,2.2967,2.2919,2.2905,2.2857,2.2877,2.2964,2.2823,2.2821,2.2849,2.303,2.3066,2.3083,2.2928,2.293,2.2932,2.3032,0,2.3231,2.3255,2.3193,2.3232,2.3234,2.3151,2.3165,2.3136,2.3098,2.3094,2.3052,2.3049,2.2988,2.2978,2.2994,2.295,2.2999,2.2943,2.2936,2.2937,2.2945,2.3099,2.3138,2.3234,2.3044,2.3046,2.3048,0,2.3363,2.3343,2.3383,2.3327,2.3325,2.334,2.3315,2.3313,2.3277,2.3248,2.3231,2.3175,2.3187,2.3122,2.3136,2.3099,2.3093,2.3071,2.3073,2.3068,2.2997,2.3096,2.3264,2.3278,2.3066,2.3065,2.3064,0,2.35,2.3484,2.3504,2.349,2.3427,2.3438,2.3412,2.3373,2.3364,2.3343,2.3336,2.3318,2.3307,2.3294,2.3234,2.3193,2.3254,2.3185,2.3229,2.3231,2.3244,2.3244,2.3411,2.3245,2.3245,2.3245,2.3244,0,2.3628,2.3654,2.3564,2.3577,2.3603,2.3532,2.356,2.3526,2.3491,2.3495,2.3423,2.3428,2.3349,2.3346,2.3299,2.3316,2.3313,2.3289,2.3275,2.3294,2.3296,2.3287,2.3278,2.3248,2.3247,2.3247,2.3246,0,2.3784,2.3725,2.3741,2.3679,2.3664,2.3687,2.3633,2.3642,2.3599,2.3605,2.3602,2.3535,2.3527,2.3466,2.3444,2.3413,2.3447,2.3422,2.3458,2.3449,2.3495,2.3491,2.366,2.3678,2.3504,2.3506,2.3507,0,2.3868,2.3886,2.3826,2.3823,2.38,2.3797,2.3787,2.3717,2.371,2.3669,2.3682,2.3667,2.3652,2.3642,2.3591,2.3574,2.3546,2.3607,2.3543,2.356,2.3544,2.3542,2.3542,2.362,2.3622,2.3624,2.3625,0,2.4023,2.3992,2.3981,2.3959,2.3949,2.3929,2.3904,2.3906,2.3828,2.3824,2.3813,2.3801,2.3778,2.3764,2.3737,2.371,2.3654,2.3646,2.3655,2.3672,2.3692,2.3679,2.3493,2.3642,2.364,2.3639,2.3638,2.3638,2.4143,2.4155,2.4113,2.4102,2.4076,2.4054,2.4058,2.4016,2.4006,2.3981,2.394,2.3936,2.3897,2.3855,2.3832,2.3827,2.3795,2.3808,2.3811,2.3815,2.3823,2.3695,2.3822,2.3822,2.3821,2.3821,2.382,0,2.4291,2.4261,2.4251,2.4218,2.4209,2.4158,2.4127,2.4123,2.4119,2.4088,2.4074,2.4061,2.4047,2.3995,2.3974,2.398,2.3954,2.3977,2.3974,2.3968,2.3855,2.3848,2.3998,2.3998,2.3998,2.3998,2.3998,2.3998,2.4367,2.4383,2.4347,2.4348,2.4317,2.4311,2.4298,2.4276,2.4251,2.424,2.4227,2.4193,2.4153,2.4129,2.4113,2.4097,2.4092,2.4123,2.41,2.3994,2.3977,2.3961,2.3953,2.4124,2.4124,2.4213,2.4214,2.4215]},{"header":{"parameterUnit":"m.s-1","parameterCategory":1,"la1":30.2991,"la2":30.254,"lo1":-89.0895,"lo2":-89.0444,"dy":0.0017,"dx":0.0017,"nx":28,"ny":28,"refTime":"2025-05-27T09:00:00:Z","depth":0,"parameterNumber":3,"parameterNumberName":"V-component_of_WINDS"},"data":[0,0,0,0,0,0,0,0,0,0,0,0,0,0,0,0,0,0,0,0,0,0,0,0,0,0,0,0,0,0,0,0,0,0,0,0,0,0,0,0,0,0,0,0,0,0,0,0,0,0,0,0,0,0,0,0,0,0,7.0968,7.0969,0,7.1058,7.1059,7.106,7.1025,7.1023,7.1021,7.1019,7.1105,7.1109,7.1113,0,0,0,0,0,0,0,0,0,0,0,0,0,7.0756,7.076,7.0968,7.0969,7.097,7.1058,7.1059,7.1061,7.1026,7.1023,7.1021,7.1018,7.1104,7.1109,7.1114,0,0,0,0,0,0,0,0,0,0,0,0,0,7.0847,7.0761,7.0967,7.0963,7.0964,7.1058,7.1059,7.1061,7.1026,7.1023,7.102,7.1017,7.1102,7.1108,7.1114,7.1215,0,0,7.1134,7.1136,0,0,0,0,0,0,0,0,7.0842,7.0855,7.0963,7.0964,7.0965,7.1028,7.1016,7.1113,7.1027,7.1002,7.1019,7.1016,7.1081,7.1089,7.1113,7.1219,7.1223,7.1134,7.1138,7.1141,7.1142,0,0,0,0,0,0,0,7.0836,7.0851,7.1003,7.0964,7.0966,7.0954,7.0964,7.1034,7.1058,7.1004,7.1002,7.1014,7.1081,7.1107,7.1114,7.1224,7.1134,7.114,7.1143,7.1146,7.1414,7.1418,0,0,0,0,0,0,7.083,7.0846,7.1,7.1006,7.0895,7.096,7.0971,7.101,7.1057,7.1061,7.1016,7.1012,7.1097,7.1107,7.1117,7.1236,7.1141,7.1147,7.115,7.1411,7.1415,7.1419,0,0,0,0,0,0,7.0826,7.0844,7.0997,7.0925,7.0944,7.0967,7.1012,7.1014,7.1039,7.1066,7.1069,7.1039,7.1095,7.1108,7.1191,7.1238,7.1149,7.1155,7.1407,7.1412,7.1417,7.1476,0,0,0,0,0,0,7.082,7.0843,7.0884,7.0927,7.0948,7.1072,7.1015,7.1018,7.1051,7.1046,7.1088,7.1092,7.1094,7.1182,7.1197,7.1246,7.116,7.1403,7.1409,7.1415,7.147,7.1482,7.1493,0,0,0,0,0,7.0812,7.0896,7.0886,7.0905,7.1,7.1075,7.1086,7.1089,7.1055,7.1095,7.1111,7.109,7.1231,7.119,7.1208,7.1259,7.14,7.1408,7.1415,7.1465,7.148,7.1493,0,0,0,0,0,0,7.0856,7.0902,7.0891,7.0992,7.103,7.1069,7.1119,7.1106,7.1153,7.1146,7.1145,7.1154,7.1239,7.1257,7.1211,7.1357,7.131,7.1321,7.1342,7.1357,7.1368,7.1361,7.1165,0,0,0,0,0,7.0878,7.0938,7.0973,7.1058,7.1078,7.1095,7.1128,7.1127,7.1165,7.118,7.1203,7.1239,7.1291,7.1325,7.1375,7.1473,7.1479,7.1516,7.1528,7.1537,7.1546,7.1596,7.1611,7.1443,7.1443,7.1443,0,0,7.0923,7.0955,7.0993,7.1068,7.1097,7.1156,7.1109,7.1174,7.1216,7.1189,7.1269,7.1287,7.1326,7.1416,7.1457,7.1434,7.1594,7.1547,7.1554,7.1558,7.1605,7.1621,7.1635,7.1449,7.1448,7.1447,0,0,7.1034,7.1066,7.1139,7.117,7.1215,7.1226,7.1243,7.1284,7.1295,7.1375,7.1356,7.1405,7.1495,7.1523,7.155,7.1669,7.165,7.1685,7.1745,7.1794,7.1807,7.1818,7.1858,7.1873,7.1695,7.1695,7.1695,0,7.1083,7.1174,7.1178,7.1244,7.1276,7.1256,7.1328,7.1357,7.1415,7.1436,7.141,7.1522,7.1547,7.1642,7.1671,7.1694,7.1711,7.168,7.1805,7.1817,7.1828,7.1865,7.188,7.1699,7.1698,7.1698,7.1697,0,7.123,7.1293,7.1346,7.1404,7.1442,7.1511,7.1522,7.156,7.1555,7.1567,7.1646,7.1677,7.173,7.1753,7.1749,7.1846,7.183,7.1805,7.1757,7.1847,7.1882,7.1897,7.1704,7.1703,7.1701,7.1701,0,0,7.1372,7.1431,7.145,7.1475,7.1523,7.157,7.1636,7.169,7.1721,7.1761,7.1814,7.189,7.1867,7.1896,7.1895,7.1937,7.2026,7.1906,7.1907,7.1925,7.2131,7.2148,7.2165,7.2015,7.2018,7.202,7.2127,0,7.1484,7.1603,7.1607,7.1714,7.1769,7.1751,7.1807,7.1841,7.1854,7.19,7.1913,7.1967,7.1933,7.195,7.1992,7.2007,7.2067,7.1999,7.206,7.2062,7.2049,7.2184,7.2203,7.2303,7.2141,7.2144,7.2145,0,7.1632,7.1678,7.1791,7.1828,7.1852,7.1903,7.1952,7.1998,7.2034,7.204,7.2073,7.2064,7.2127,7.208,7.2165,7.2119,7.2144,7.2154,7.2158,7.2162,7.2108,7.2189,7.2335,7.2349,7.2168,7.2166,7.2164,0,7.172,7.181,7.1888,7.1911,7.1957,7.1993,7.2014,7.2048,7.2079,7.2121,7.214,7.2189,7.2214,7.225,7.2253,7.2219,7.2338,7.2291,7.2342,7.2342,7.2366,7.2364,7.2516,7.2387,7.2387,7.2387,7.2386,0,7.1844,7.1912,7.1928,7.1976,7.2051,7.2054,7.2128,7.2145,7.2175,7.2223,7.221,7.2255,7.2258,7.2303,7.2306,7.2374,7.2386,7.239,7.239,7.239,7.2389,7.2405,7.2397,7.239,7.239,7.2389,7.2388,0,7.1954,7.1968,7.2052,7.2089,7.21,7.2153,7.2183,7.2227,7.2238,7.2299,7.2314,7.233,7.2383,7.239,7.2451,7.2453,7.2534,7.2528,7.2522,7.252,7.257,7.2564,7.2734,7.2755,7.2616,7.2617,7.2618,0,7.2031,7.2084,7.2127,7.2159,7.2182,7.2234,7.2266,7.2271,7.2304,7.2348,7.2386,7.2437,7.2479,7.2562,7.2578,7.2624,7.2616,7.2673,7.2623,7.2621,7.2614,7.2609,7.2613,7.2682,7.2683,7.2685,7.2686,0,7.2165,7.2169,7.2218,7.2268,7.2307,7.2346,7.2383,7.2409,7.2418,7.2455,7.251,7.2542,7.2604,7.2654,7.2699,7.2716,7.2701,7.2702,7.2715,7.2715,7.2708,7.2709,7.2546,7.2697,7.2696,7.2695,7.2695,7.2694,7.2259,7.2304,7.2341,7.2394,7.2422,7.2456,7.2499,7.2516,7.2562,7.2614,7.2613,7.2672,7.2703,7.2762,7.2783,7.2827,7.2808,7.2829,7.2833,7.2838,7.2841,7.2704,7.2835,7.2835,7.2835,7.2835,7.2834,0,7.239,7.2413,7.2462,7.2514,7.2555,7.254,7.2579,7.2613,7.2666,7.2698,7.2739,7.2799,7.2847,7.2867,7.2913,7.2944,7.2938,7.2955,7.2952,7.2955,7.2857,7.2839,7.2959,7.2959,7.2959,7.2959,7.2959,7.2959,7.2463,7.2537,7.2545,7.2631,7.2652,7.2711,7.2734,7.2764,7.279,7.2858,7.2899,7.2912,7.2938,7.2985,7.3027,7.3031,7.3047,7.3068,7.3068,7.2975,7.2963,7.2951,7.2934,7.3072,7.3072,7.3163,7.3164,7.3164]}]]